Вернуться в каталог

STARLINK-35736

АктивенСвязьVLEO
NORAD 66230·PAYLOAD·🇺🇸 United States

Запущен Oct 28, 2025 с Vandenberg Space Force Base

Loading…

Ближайшие Пролёты (ближайшие 24 часа)

TLE

СвежийSource: CelesTrak SupGP

Эпоха: Sep 14, 2026, 21:03 UTC

1 66230C 25244AA  26257.87756944 -.00000570  00000+0 -16845-4 0  2574
2 66230  53.1602  69.9014 0001209  81.6109 244.3362 15.34380466    17

Отслеживайте STARLINK-35736 в реальном времени с AllMySat

Download on the App Store